| time (UTC) | temp C | wind direction | speed KPH | gust KPH | rain 1hr cm | rain 24hr cm | rain mn cm | humidity % | barometer mb |
| 20260503213035 | 25 | 344 | 8.0 | 19.3 | 0.00 | 0.00 | 0.00 | 31 | 1017.4 |
| 20260503211534 | 25 | 351 | 9.7 | 24.1 | 0.00 | 0.00 | 0.00 | 31 | 1017.6 |
| 20260503210033 | 25 | 338 | 11.3 | 30.6 | 0.00 | 0.00 | 0.00 | 31 | 1017.7 |
| 20260503204536 | 25 | 3 | 8.0 | 24.1 | 0.00 | 0.00 | 0.00 | 31 | 1017.8 |
| 20260503203034 | 24 | 340 | 11.3 | 24.1 | 0.00 | 0.00 | 0.00 | 32 | 1017.9 |
| 20260503201643 | 25 | 344 | 11.3 | 22.5 | 0.00 | 0.00 | 0.00 | 31 | 1018.1 |
| 20260503200036 | 24 | 349 | 9.7 | 25.7 | 0.00 | 0.00 | 0.00 | 32 | 1018.3 |
| 20260503194534 | 24 | 357 | 8.0 | 24.1 | 0.00 | 0.00 | 0.00 | 32 | 1018.4 |
| 20260503193036 | 24 | 346 | 9.7 | 20.9 | 0.00 | 0.00 | 0.00 | 32 | 1018.5 |
| 20260503191535 | 24 | 341 | 9.7 | 20.9 | 0.00 | 0.00 | 0.00 | 31 | 1018.7 |
| 20260503184535 | 23 | 344 | 11.3 | 25.7 | 0.00 | 0.00 | 0.00 | 33 | 1018.8 |
| 20260503183034 | 23 | 346 | 12.9 | 24.1 | 0.00 | 0.03 | 0.00 | 34 | 1018.9 |
| 20260503181534 | 23 | 336 | 9.7 | 20.9 | 0.00 | 0.03 | 0.00 | 40 | 1019.0 |
| 20260503180036 | 23 | 344 | 9.7 | 19.3 | 0.00 | 0.03 | 0.00 | 41 | 1019.0 |
| 20260503174535 | 22 | 298 | 4.8 | 12.9 | 0.00 | 0.03 | 0.00 | 44 | 1019.2 |
| 20260503173146 | 22 | 267 | 4.8 | 11.3 | 0.00 | 0.03 | 0.00 | 45 | 1019.3 |
| 20260503160110 | 20 | 285 | 3.2 | 8.0 | 0.00 | 0.03 | 0.00 | 45 | 1019.4 |
| 20260503081534 | 13 | 113 | 9.7 | 14.5 | 0.00 | 0.03 | 0.00 | 58 | 1019.5 |
| 20260503054534 | 14 | 134 | 4.8 | 8.0 | 0.00 | 0.03 | 0.03 | 61 | 1019.3 |
| 20260503053035 | 16 | 152 | 6.4 | 9.7 | 0.00 | 0.03 | 0.03 | 54 | 1019.2 |
| 20260503051535 | 16 | 137 | 6.4 | 9.7 | 0.00 | 0.03 | 0.03 | 54 | 1019.3 |
| 20260503050035 | 16 | 126 | 3.2 | 8.0 | 0.00 | 0.03 | 0.03 | 55 | 1019.3 |
| 20260503044535 | 16 | 151 | 1.6 | 9.7 | 0.00 | 0.03 | 0.03 | 55 | 1019.4 |
| 20260503043037 | 16 | 130 | 1.6 | 4.8 | 0.00 | 0.03 | 0.03 | 55 | 1019.3 |
| 20260503033035 | 16 | 140 | 4.8 | 6.4 | 0.00 | 0.03 | 0.03 | 56 | 1018.8 |
| 20260503031532 | 17 | 135 | 4.8 | 6.4 | 0.00 | 0.03 | 0.03 | 55 | 1018.6 |
| 20260503030036 | 18 | 114 | 4.8 | 8.0 | 0.00 | 0.03 | 0.03 | 52 | 1018.3 |
| 20260503024535 | 18 | 112 | 6.4 | 9.7 | 0.00 | 0.03 | 0.03 | 49 | 1018.1 |
| 20260503023033 | 18 | 134 | 4.8 | 8.0 | 0.00 | 0.03 | 0.03 | 50 | 1018.0 |
| 20260503021534 | 18 | 149 | 4.8 | 8.0 | 0.00 | 0.03 | 0.03 | 52 | 1018.0 |
| 20260503020039 | 20 | 160 | 4.8 | 6.4 | 0.00 | 0.03 | 0.03 | 49 | 1017.9 |
| 20260503014531 | 21 | 191 | 3.2 | 6.4 | 0.00 | 0.03 | 0.03 | 42 | 1017.9 |
| 20260503013037 | 21 | 101 | 1.6 | 6.4 | 0.00 | 0.03 | 0.03 | 39 | 1017.9 |
| 20260503011534 | 21 | 55 | 3.2 | 9.7 | 0.00 | 0.03 | 0.03 | 37 | 1017.9 |
| 20260503004534 | 22 | 62 | 4.8 | 11.3 | 0.00 | 0.03 | 0.03 | 35 | 1017.9 |
| 20260503003035 | 22 | 57 | 4.8 | 14.5 | 0.00 | 0.03 | 0.03 | 34 | 1017.8 |
| 20260502234607 | 22 | 26 | 4.8 | 16.1 | 0.00 | 0.03 | 0.03 | 34 | 1018.0 |
| 20260502233142 | 22 | 55 | 6.4 | 19.3 | 0.00 | 0.03 | 0.03 | 34 | 1018.1 |
| 20260502231535 | 22 | 10 | 6.4 | 16.1 | 0.00 | 0.03 | 0.03 | 34 | 1018.2 |
| 20260502224537 | 22 | 36 | 6.4 | 20.9 | 0.00 | 0.03 | 0.03 | 35 | 1018.5 |
| 20260502221545 | 23 | 360 | 8.0 | 24.1 | 0.00 | 0.03 | 0.03 | 34 | 1018.8 |
| 20260502220040 | 23 | 19 | 8.0 | 22.5 | 0.00 | 0.03 | 0.03 | 34 | 1018.8 |